Overview Statistics Trail Chart Weather Telemetry Raw packets
 

This is the latest recevied weather packets stored in our database for station/object W5CMS-13. If no packets are shown the sender has not sent any weather packets the latest 10 day(s).

<< 22 23 24 25 26 27 28 >>
Time Temp. Humidity Pressure Rain* Wind** Luminosity Snow
1788278716 33.33° C 59% 1016.7 hPa 0 mm - - -
1788278116 33.33° C 58% 1016.8 hPa 0 mm - - -
1788277516 32.78° C 61% 1016.7 hPa 0 mm - - -
1788276916 32.78° C 61% 1016.7 hPa 0 mm - - -
1788276317 32.22° C 63% 1016.6 hPa 0 mm - - -
1788275717 31.67° C 65% 1016.7 hPa 0 mm - - -
1788275126 31.11° C 65% 1016.7 hPa 0 mm - - -
1788274516 31.11° C 65% 1016.8 hPa 0 mm - - -
1788273916 31.11° C 66% 1016.8 hPa 0 mm - - -
1788273327 30.56° C 68% 1016.9 hPa 0 mm - - -
1788272717 30.56° C 68% 1016.8 hPa 0 mm - - -
1788272116 30° C 69% 1016.8 hPa 0 mm - - -
1788271515 29.44° C 70% 1016.8 hPa 0 mm - - -
1788270916 29.44° C 71% 1016.8 hPa 0 mm - - -
1788270317 29.44° C 71% 1016.8 hPa 0 mm - - -
1788269716 28.89° C 72% 1016.8 hPa 0 mm - - -
1788269116 28.33° C 72% 1016.8 hPa 0 mm - - -
1788268516 28.33° C 72% 1016.8 hPa 0 mm - - -
1788267916 27.78° C 74% 1016.6 hPa 0 mm - - -
1788267316 27.22° C 75% 1016.4 hPa 0 mm - - -
1788266716 26.67° C 76% 1016.3 hPa 0 mm - - -
1788266116 26.67° C 76% 1016.2 hPa 0 mm - - -
1788265517 26.11° C 77% 1015.9 hPa 0 mm - - -
1788264916 26.67° C 75% 1015.8 hPa 0 mm - - -
1788264316 26.67° C 74% 1015.8 hPa 0 mm - - -

* Rain latest hour (hover to see other rain measurements)
** Current wind speed in m/s (hover to see current wind gust speed)